/EX
1
0
21 Dec '23
HADES-D has been positively identified with NORAD Cat 58567
The following satellite has been added to this week's AMSAT-NA TLE distribution:
Clark sat-1 (AMBITIOUS) NORAD Cat ID 58613 IARU coordinated downlink on 435.130 MHz
Joe Fitzgerald KM1P
AMSAT Orbital Elements Manager
1
0
15 Dec '23
This week there are no additions or deletions to the AMSAT TLE distribution.
1
0
SB KEPS @ AMSAT $ORB23349.1
2Line Orbital Elements 23349.AMSAT
QST de W1STR
AMSAT Orbital Elements for Amateur Satellites in TLE Format
>From Orbital Analysis Office
New England Sci-Tech STEM Education Center
Natick, MA December 15, 2023
To all radio amateurs
These element sets describe the orbits of various satellites
in use by the amateur radio community. For details see:
www.amsat.org/keplerian-elements-formats/
A daily update of element sets is available at:
www.amsat.org/tle/daily-bulletin.txt
or without bulletin text:
www.amsat.org/tle/dailytle.txt
AO-07
1 07530U 74089B 23348.85432451 -.00000042 00000-0 26759-4 0 9995
2 07530 101.9660 336.8673 0012481 78.1454 347.0767 12.53670129246058
UO-11
1 14781U 84021B 23348.47083451 .00001446 00000-0 17246-3 0 9996
2 14781 97.6813 318.7425 0007565 340.7945 19.2984 14.85739728120901
AO-16
1 20439U 90005D 23348.58417453 .00000165 00000-0 77082-4 0 9999
2 20439 98.8954 343.5746 0011471 39.9632 74.5466 14.33232298770992
LO-19
1 20442U 90005G 23348.48425430 .00000164 00000-0 76273-4 0 9996
2 20442 98.8659 329.0640 0012055 15.4415 344.7134 14.33388662771179
AO-27
1 22825U 93061C 23348.61596972 .00000119 00000-0 63438-4 0 9992
2 22825 98.8178 34.2030 0007394 260.0738 99.9609 14.30394582576080
IO-26
1 22826U 93061D 23348.57332012 .00000132 00000-0 67984-4 0 9996
2 22826 98.8123 34.0207 0008011 243.7896 116.2463 14.30765407576602
FO-29
1 24278U 96046B 23348.45687392 .00000003 00000-0 41840-4 0 9996
2 24278 98.5578 302.6586 0349431 309.5763 47.4991 13.53166646349319
NOAA-15
1 25338U 98030A 23348.78497043 .00000166 00000-0 86807-4 0 9999
2 25338 98.5888 14.6138 0011001 142.1265 218.0691 14.26452600331000
GO-32
1 25397U 98043D 23348.88077938 .00000087 00000-0 57795-4 0 9992
2 25397 98.8962 308.1240 0001332 24.2915 335.8326 14.23955604321263
ISS
1 25544U 98067A 23348.80239672 .00011825 00000-0 21186-3 0 9995
2 25544 51.6405 153.9062 0002239 25.0767 50.2515 15.50399815429809
NO-44
1 26931U 01043C 23348.66326397 .00000192 00000-0 10422-3 0 9995
2 26931 67.0514 90.7727 0005600 260.3931 99.6538 14.31066892159569
SO-50
1 27607U 02058C 23348.59757059 .00001318 00000-0 19823-3 0 9993
2 27607 64.5552 71.5566 0047681 183.5798 176.4972 14.78056168129091
CO-55
1 27844U 03031E 23348.54901349 .00000336 00000-0 16842-3 0 9993
2 27844 98.6786 353.1990 0009155 328.8258 31.2376 14.22996939 61415
CO-57
1 27848U 03031J 23347.99083795 .00000224 00000-0 12013-3 0 9993
2 27848 98.6817 352.9898 0009425 346.9951 13.0982 14.22476588 61064
RS-22
1 27939U 03042A 23348.88107461 .00001072 00000-0 19105-3 0 9993
2 27939 98.2655 137.5642 0011198 287.4541 195.6421 14.69081428 81062
NOAA-18
1 28654U 05018A 23348.84488217 .00000247 00000-0 15621-3 0 9992
2 28654 98.8944 62.2265 0013668 225.5426 134.4629 14.13077279957081
CO-58
1 28895U 05043F 23348.32154775 .00001564 00000-0 29041-3 0 9993
2 28895 98.1766 119.3757 0015407 221.2383 138.7658 14.66544633967206
CO-65
1 32785U 08021C 23348.53301172 .00003696 00000-0 35005-3 0 9998
2 32785 97.7321 311.0867 0010132 217.6388 142.4124 14.94185124847730
AAUSAT2
1 32788U 08021F 23348.85309887 .00009467 00000-0 60100-3 0 9993
2 32788 97.5794 325.0457 0009447 90.6872 269.5439 15.09055299850403
CO-66
1 32791U 08021J 23348.88692228 .00004849 00000-0 39742-3 0 9991
2 32791 97.6831 316.9106 0009968 152.8757 207.2989 14.99691926848790
RS-30
1 32953U 08025A 23348.80477592 .00000023 00000-0 92859-4 0 9991
2 32953 82.5030 204.7603 0019450 148.3079 211.9176 12.43133218706092
PRISM
1 33493U 09002B 23348.58424542 .00009473 00000-0 56400-3 0 9998
2 33493 98.2307 16.2776 0014845 154.5337 205.6626 15.11372797810944
NOAA-19
1 33591U 09005A 23348.84178486 .00000213 00000-0 13873-3 0 9992
2 33591 99.0762 37.4495 0014794 94.8625 265.4236 14.12885661765454
SRMSAT
1 37841U 11058D 23346.87217667 .00000428 00000-0 89499-4 0 9997
2 37841 19.9704 209.6026 0011853 195.3259 277.6327 14.10999144628071
HRBE
1 37855U 11061F 23348.15983554 .00038416 00000-0 84006-3 0 9990
2 37855 101.6955 53.4670 0092077 204.6154 155.0668 15.39613620664125
RS-40
1 38735U 12041C 23348.50935489 .00000026 00000-0 12069-3 0 9996
2 38735 82.4757 285.6429 0016257 264.9238 94.9986 12.42598510516118
ZACUBE-1
1 39417U 13066B 23348.85286555 .00003445 00000-0 38259-3 0 9990
2 39417 97.7117 304.6274 0054728 53.5238 307.1003 14.86755029544022
Delfi-N3xt
1 39428U 13066N 23348.78526760 .00005706 00000-0 78192-3 0 9991
2 39428 97.8385 267.4866 0105947 329.1199 30.3806 14.74990650538918
GOMX-1
1 39430U 13066Q 23348.62877850 .00001377 00000-0 24028-3 0 9995
2 39430 97.7563 229.1215 0144113 121.5915 239.9448 14.62872479535909
LO-74
1 39440U 13066AA 23348.59437856 .00002423 00000-0 30462-3 0 9992
2 39440 97.7949 291.8323 0073297 158.5378 201.8935 14.81118362540844
AO-73
1 39444U 13066AE 23348.85366923 .00004793 00000-0 50339-3 0 9998
2 39444 97.6975 307.3826 0052432 37.4515 323.0337 14.88920513543092
SPROUT
1 39770U 14029E 23348.86928714 .00024777 00000-0 13606-2 0 9992
2 39770 98.0024 123.1003 0004316 67.0538 293.1147 15.14111030519373
DTUSAT-2
1 40030U 14033W 23348.83842581 .00004008 00000-0 36872-3 0 9998
2 40030 97.9876 292.1182 0011951 55.7462 304.4888 14.95303767515489
EO-80
1 40032U 14033Y 23348.81243028 .00004359 00000-0 40010-3 0 9997
2 40032 97.9883 292.1063 0012219 57.7756 302.4646 14.95338894515460
HODOYOSHI-1
1 40299U 14070B 23348.80427230 .00011865 00000-0 30654-3 0 9994
2 40299 97.1701 47.1521 0009055 359.1071 1.0158 15.39229303506537
GRIFEX
1 40379U 15003D 23348.48949911 .00122769 00000-0 10632-2 0 9998
2 40379 99.0843 332.1851 0046093 5.4449 354.7297 15.67348927491327
XW-2C
1 40906U 15049H 23348.70176372 .00013208 00000-0 42351-3 0 9993
2 40906 97.4896 357.1382 0008144 239.9107 120.1328 15.32441664455985
XW-2D
1 40907U 15049J 23348.74360716 .00016715 00000-0 48021-3 0 9991
2 40907 97.4863 358.3656 0007006 226.3638 133.7025 15.35880035456125
LILACSAT-2
1 40908U 15049K 23348.74609782 .00005433 00000-0 23712-3 0 9996
2 40908 97.5267 351.6644 0011359 282.9877 77.0091 15.22513561455245
XW-2E
1 40909U 15049L 23348.75330530 .00056067 00000-0 75632-3 0 9997
2 40909 97.4355 7.5630 0005608 156.8205 203.3304 15.57612859457048
XW-2F
1 40910U 15049M 23348.71436450 .00055087 00000-0 77372-3 0 9997
2 40910 97.4456 6.7781 0005994 162.6885 197.4575 15.56525221456763
XW-2B
1 40911U 15049N 23348.70726099 .00016940 00000-0 49226-3 0 9990
2 40911 97.4840 358.6349 0007091 228.9480 131.1152 15.35517932455994
DCBB
1 40912U 15049P 23347.83708480 .00175049 00000-0 11051-2 0 9998
2 40912 97.3897 12.0684 0006327 116.8866 243.3047 15.76097331457535
